Regional Weather Roundup
Issued by NWS

Home | Current Version | Previous Version | Graphics & Text | Print | Product List | Glossary On
Versions: 1 2 3 4 5 6 7 8 9 10 11 12 13 14 15 16 17 18 19 20 21 22 23 24 25 26 27 28 29 30 31 32 33 34 35 36 37 38 39 40 41 42 43 44 45 46 47 48 49 50
098
ASUS43 KIND 250159
RWRIN

WEATHER ROUNDUP FOR INDIANA
NATIONAL WEATHER SERVICE INDIANAPOLIS IN
1000 PM EDT SAT JUN 24 2017

NOTE: "FAIR" INDICATES FEW OR NO CLOUDS BELOW 12,000 FEET WITH NO
SIGNIFICANT WEATHER AND/OR OBSTRUCTIONS TO VISIBILITY.

* - STATION DOES NOT REPORT WEATHER SUCH AS PRECIPITATION OR FOG.

+ - STATION NOT QUALITY CONTROLLED BY THE NATIONAL WEATHER SERVICE.
    USE DATA WITH CAUTION...ESPECIALLY DEWPOINT AND RELATIVE
    HUMIDITY OBSERVATIONS.

INZ001>003-010>013-019-020-250300-
NORTHWEST INDIANA

CITY           SKY/WX    TMP DP  RH WIND       PRES   REMARKS
GARY /AIRPORT/ PTCLDY    68  36  30 W14       30.05R
KNOX *+        CLEAR     64  32  29 W8        30.05R
MICHIGAN CITY+ CLEAR     64  45  48 NW6       30.05R
MONTICELLO +   CLEAR     64  46  53 W6        30.07R

$$

LMZ046-743>745-250300-
SOUTHERN LAKE MICHIGAN

STATION/POSITION TIME  TEMP    WIND        PRES    WAVE
                       AIR SEA DIR/SP/G            HT
                 (UTC) (F)     (DEG/KT/KT) (MB)    (FT)
BURNS HARBOR     0140   68     310/ 13/ 15 1017.3R
MICHIGAN CITY    0130   68     280/ 19/ 20   N/A
5NW MICH CITY    0150   68 67  300/ 14/ 16   N/A     4

$$

INZ004-005-014>016-021>024-250300-
NORTH CENTRAL INDIANA

CITY           SKY/WX    TMP DP  RH WIND       PRES   REMARKS
GOSHEN         MOCLDY    63  48  58 W6        30.03R
SOUTH BEND     CLEAR     63  49  60 W9        30.04R

$$

INZ006>009-017-018-025>027-250300-
NORTHEAST INDIANA

CITY           SKY/WX    TMP DP  RH WIND       PRES   REMARKS
FORT WAYNE     MOCLDY    68  53  58 W9        30.04R
KENDALLVILLE + PTCLDY    64  49  57 W3        30.03R

$$

INZ028-029-035-036-043>045-051>053-250300-
WEST CENTRAL INDIANA

CITY           SKY/WX    TMP DP  RH WIND       PRES   REMARKS
CRAWFORDSVL +  CLEAR     60  49  66 W5        30.11R
LAFAYETTE      CLEAR     63  49  60 W6        30.08R
TERRE HAUTE    CLEAR     68  47  46 NW6       30.11R

$$

INZ030>032-037>040-046>048-054>057-064-065-250300-
CENTRAL INDIANA

CITY           SKY/WX    TMP DP  RH WIND       PRES   REMARKS
COLUMBUS       CLEAR     66  50  55 W7        30.09R
INDIANAPOLIS   PTCLDY    65  49  56 W7        30.09R
-EAGLE CREEK   PTCLDY    68  49  50 CALM      30.09R
KOKOMO +       CLEAR     65  49  56 W9        30.09R
MT COMFORT *+  PTCLDY    63  52  67 W5        30.09R
SHELBYVILLE    CLEAR     67  47  48 W6        30.09R

$$

INZ033-034-041-042-049-050-058-059-250300-
EAST CENTRAL INDIANA

CITY           SKY/WX    TMP DP  RH WIND       PRES   REMARKS
MUNCIE         CLEAR     67  48  50 W8        30.08R
RICHMOND +     CLEAR     64  50  59 NW12      30.09R

$$

INZ060-061-067>069-081>083-085>088-250300-
SOUTHWEST INDIANA

CITY           SKY/WX    TMP DP  RH WIND       PRES   REMARKS
EVANSVILLE     MOCLDY    70  51  51 NW5       30.13R
HUNTINGBURG *+ PTCLDY    67  55  65 NW5       30.12R

$$

INZ062-063-066-070>080-084-089>092-250300-
SOUTH CENTRAL AND SOUTHEAST INDIANA

CITY           SKY/WX    TMP DP  RH WIND       PRES   REMARKS
BLOOMINGTON    CLEAR     62  54  74 W3        30.11R
MADISON *+     PTCLDY    68  52  56 W3        30.12R
SEYMOUR +      CLOUDY    68  54  60 W7        30.09R

$$





USA.gov is the U.S. government's official web portal to all federal, state and local government web resources and services.